Location: Ash Swamp
(41.5170°N, 74.6157°W)
Time: 02:40:20
(UTC+00:00)

Helios 1B rocket - Pass Details

Date: 14 July 2020
Orbit: 574 x 584 km, 98.1° (Epoch: 14 August)

Event Time Altitude Azimuth Distance (km) Brightness Sun altitude
Rises 05:16:59 0° 17° (NNE) 2,805 7.1 -26.8°
Reaches altitude 10° 05:19:11 10° 21° (NNE) 1,899 6.0 -26.8°
Enters shadow 05:22:15 44° 48° (NE) 804 3.3 -26.7°
